TimeCDT,TemperatureF,Dew PointF,Humidity,Sea Level PressureIn,VisibilityMPH,Wind Direction,Wind SpeedMPH,Gust SpeedMPH,PrecipitationIn,Events,Conditions,WindDirDegrees,DateUTC
12:13 AM,33.8,30.2,87,29.80,10.0,NE,12.7,-,N/A,,Overcast,50,2014-03-21 05:13:00
12:33 AM,33.8,30.2,87,29.80,10.0,NE,12.7,-,N/A,,Overcast,40,2014-03-21 05:33:00
12:53 AM,33.8,30.2,87,29.80,10.0,NE,11.5,-,N/A,,Overcast,40,2014-03-21 05:53:00
1:13 AM,33.8,30.2,87,29.79,10.0,NE,13.8,-,N/A,,Overcast,50,2014-03-21 06:13:00
1:33 AM,33.8,30.2,87,29.80,10.0,NE,12.7,-,N/A,,Overcast,50,2014-03-21 06:33:00
1:53 AM,33.8,30.2,87,29.79,10.0,NE,13.8,-,N/A,,Overcast,40,2014-03-21 06:53:00
2:13 AM,33.8,30.2,87,29.80,10.0,NE,12.7,-,N/A,,Overcast,40,2014-03-21 07:13:00
2:33 AM,33.8,30.2,87,29.80,7.0,NNE,13.8,-,N/A,,Overcast,30,2014-03-21 07:33:00
2:53 AM,33.8,30.2,87,29.79,10.0,NE,13.8,-,N/A,,Overcast,40,2014-03-21 07:53:00
3:13 AM,33.8,30.2,87,29.80,5.0,NNE,12.7,17.3,N/A,Snow,Light Snow,20,2014-03-21 08:13:00
3:33 AM,33.8,30.2,87,29.80,5.0,NNE,12.7,19.6,N/A,Snow,Light Snow,20,2014-03-21 08:33:00
3:53 AM,33.8,30.2,87,29.80,7.0,North,15.0,-,N/A,Snow,Light Snow,10,2014-03-21 08:53:00
4:13 AM,33.8,30.2,87,29.81,7.0,North,16.1,-,N/A,Snow,Light Snow,10,2014-03-21 09:13:00
4:33 AM,33.8,30.2,87,29.81,10.0,North,17.3,23.0,N/A,Snow,Light Snow,10,2014-03-21 09:33:00
4:53 AM,33.8,30.2,87,29.81,10.0,North,21.9,29.9,N/A,,Overcast,360,2014-03-21 09:53:00
5:13 AM,32.0,28.4,87,29.82,7.0,North,19.6,24.2,N/A,,Overcast,360,2014-03-21 10:13:00
5:33 AM,32.0,28.4,87,29.83,7.0,North,17.3,24.2,N/A,,Overcast,360,2014-03-21 10:33:00
5:53 AM,28.4,24.8,86,29.84,5.0,NNW,23.0,27.6,N/A,,Overcast,340,2014-03-21 10:53:00
6:13 AM,26.6,23.0,86,29.85,7.0,North,24.2,31.1,N/A,,Overcast,350,2014-03-21 11:13:00
6:33 AM,24.8,21.2,86,29.86,5.0,North,25.3,31.1,N/A,,Overcast,350,2014-03-21 11:33:00
6:53 AM,23.0,19.4,86,29.88,3.0,North,27.6,35.7,N/A,,Overcast,350,2014-03-21 11:53:00
7:13 AM,21.2,17.6,86,29.89,3.0,North,27.6,40.3,N/A,,Overcast,350,2014-03-21 12:13:00
7:33 AM,19.4,15.8,86,29.91,5.0,North,32.2,44.9,N/A,,Overcast,350,2014-03-21 12:33:00
7:53 AM,19.4,15.8,86,29.93,7.0,North,28.8,42.6,N/A,,Overcast,360,2014-03-21 12:53:00
8:13 AM,17.6,12.2,79,29.95,7.0,North,28.8,38.0,N/A,,Overcast,360,2014-03-21 13:13:00
8:33 AM,15.8,10.4,79,29.96,10.0,North,32.2,41.4,N/A,,Overcast,350,2014-03-21 13:33:00
8:53 AM,15.8,10.4,79,29.97,10.0,North,31.1,41.4,N/A,,Overcast,350,2014-03-21 13:53:00
9:13 AM,15.8,10.4,79,29.99,5.0,North,28.8,40.3,N/A,Snow,Light Snow,350,2014-03-21 14:13:00
9:33 AM,12.2,8.6,85,30.01,0.8,NNW,31.1,40.3,N/A,Snow,Light Snow,340,2014-03-21 14:33:00
9:53 AM,12.2,8.6,85,30.02,0.5,NNW,31.1,41.4,N/A,Snow,Light Snow,340,2014-03-21 14:53:00
10:13 AM,12.2,8.6,85,30.04,1.0,NNW,32.2,38.0,N/A,Snow,Light Snow,340,2014-03-21 15:13:00
10:33 AM,12.2,6.8,79,30.04,1.2,NNW,33.4,40.3,N/A,,Haze,340,2014-03-21 15:33:00
10:53 AM,12.2,6.8,79,30.05,1.5,NNW,38.0,44.9,N/A,,Haze,340,2014-03-21 15:53:00
11:13 AM,10.4,6.8,85,30.07,1.2,NNW,29.9,44.9,N/A,,Overcast,340,2014-03-21 16:13:00
11:33 AM,10.4,6.8,85,30.07,2.0,NNW,35.7,42.6,N/A,,Haze,340,2014-03-21 16:33:00
11:53 AM,10.4,5.0,79,30.10,3.0,NNW,32.2,43.7,N/A,,Haze,340,2014-03-21 16:53:00
12:13 PM,10.4,3.2,73,30.11,2.5,NNW,36.8,46.0,N/A,,Haze,340,2014-03-21 17:13:00
12:33 PM,10.4,5.0,79,30.12,3.0,NNW,27.6,42.6,N/A,,Haze,340,2014-03-21 17:33:00
12:53 PM,10.4,3.2,73,30.12,3.0,NNW,36.8,42.6,N/A,,Haze,340,2014-03-21 17:53:00
1:13 PM,10.4,3.2,73,30.14,4.0,NNW,29.9,41.4,N/A,,Haze,340,2014-03-21 18:13:00
1:33 PM,10.4,5.0,79,30.15,5.0,NNW,31.1,41.4,N/A,,Haze,340,2014-03-21 18:33:00
1:53 PM,10.4,3.2,73,30.16,5.0,NNW,28.8,40.3,N/A,,Haze,330,2014-03-21 18:53:00
2:13 PM,10.4,3.2,73,30.17,5.0,NNW,31.1,40.3,N/A,,Haze,340,2014-03-21 19:13:00
2:33 PM,10.4,3.2,73,30.18,4.0,NNW,29.9,39.1,N/A,,Haze,330,2014-03-21 19:33:00
2:53 PM,10.4,3.2,73,30.18,7.0,NNW,33.4,38.0,N/A,,Overcast,340,2014-03-21 19:53:00
3:13 PM,10.4,1.4,67,30.20,7.0,NNW,26.5,35.7,N/A,,Overcast,330,2014-03-21 20:13:00
3:33 PM,8.6,3.2,79,30.21,1.8,NNW,27.6,35.7,N/A,,Haze,330,2014-03-21 20:33:00
3:53 PM,8.6,3.2,79,30.21,4.0,NNW,27.6,35.7,N/A,,Haze,330,2014-03-21 20:53:00
4:13 PM,8.6,1.4,73,30.22,2.5,NNW,28.8,35.7,N/A,,Haze,330,2014-03-21 21:13:00
4:33 PM,8.6,1.4,73,30.24,3.0,NNW,27.6,31.1,N/A,,Haze,330,2014-03-21 21:33:00
4:53 PM,8.6,1.4,73,30.25,7.0,NNW,24.2,33.4,N/A,,Mostly Cloudy,330,2014-03-21 21:53:00
5:13 PM,8.6,1.4,73,30.25,10.0,NNW,24.2,33.4,N/A,,Mostly Cloudy,330,2014-03-21 22:13:00
5:33 PM,8.6,1.4,73,30.27,10.0,NNW,27.6,33.4,N/A,,Mostly Cloudy,340,2014-03-21 22:33:00
5:53 PM,8.6,1.4,73,30.27,10.0,NNW,24.2,33.4,N/A,,Scattered Clouds,340,2014-03-21 22:53:00
6:13 PM,6.8,-0.4,72,30.28,10.0,NNW,24.2,32.2,N/A,,Scattered Clouds,330,2014-03-21 23:13:00
6:33 PM,6.8,-0.4,72,30.30,10.0,NNW,20.7,29.9,N/A,,Scattered Clouds,340,2014-03-21 23:33:00
6:53 PM,6.8,-2.2,67,30.30,10.0,NNW,24.2,29.9,N/A,,Clear,340,2014-03-21 23:53:00
7:13 PM,6.8,-2.2,67,30.31,10.0,NNW,18.4,24.2,N/A,,Clear,340,2014-03-22 00:13:00
7:33 PM,6.8,-2.2,67,30.32,10.0,NNW,18.4,25.3,N/A,,Clear,330,2014-03-22 00:33:00
7:53 PM,5.0,-2.2,72,30.33,10.0,NNW,16.1,-,N/A,,Clear,330,2014-03-22 00:53:00
8:13 PM,5.0,-2.2,72,30.34,10.0,NNW,18.4,23.0,N/A,,Clear,330,2014-03-22 01:13:00
8:33 PM,5.0,-4.0,66,30.35,10.0,NNW,13.8,-,N/A,,Clear,330,2014-03-22 01:33:00
8:53 PM,5.0,-4.0,66,30.36,10.0,NNW,15.0,21.9,N/A,,Clear,330,2014-03-22 01:53:00
9:13 PM,3.2,-4.0,72,30.37,10.0,NNW,12.7,-,N/A,,Clear,330,2014-03-22 02:13:00
9:33 PM,3.2,-4.0,72,30.37,10.0,NNW,16.1,-,N/A,,Clear,340,2014-03-22 02:33:00
9:53 PM,3.2,-4.0,72,30.38,10.0,NNW,12.7,-,N/A,,Clear,340,2014-03-22 02:53:00
10:13 PM,3.2,-4.0,72,30.38,10.0,NNW,9.2,-,N/A,,Clear,340,2014-03-22 03:13:00
10:33 PM,3.2,-4.0,72,30.38,10.0,NNW,10.4,-,N/A,,Clear,340,2014-03-22 03:33:00
10:53 PM,3.2,-5.8,66,30.39,10.0,NNW,11.5,-,N/A,,Clear,340,2014-03-22 03:53:00
11:13 PM,3.2,-5.8,66,30.39,10.0,NNW,11.5,-,N/A,,Clear,340,2014-03-22 04:13:00
11:33 PM,1.4,-5.8,72,30.40,10.0,NNW,9.2,-,N/A,,Clear,340,2014-03-22 04:33:00
11:53 PM,1.4,-5.8,72,30.40,10.0,NNW,9.2,-,N/A,,Clear,340,2014-03-22 04:53:00